Location: Leedale
(52.5833°N, 114.4833°W)
Time: 03:26:52
(UTC+00:00)

BlueWalker 3 - Pass Details

Date: 12 August 2024
Orbit: 476 x 487 km, 53.2° (Epoch: 09 September)

Event Time Altitude Azimuth Distance (km) Brightness Sun altitude
Exits shadow 09:04:01 28° 121° (ESE) 949 3.2 -20.4°
Drops below altitude 10° 09:06:37 10° 83° (E) 1,691 4.9 -20.3°
Sets 09:08:57 0° 73° (ENE) 2,577 6.1 -20.1°
